Find Starlink 32625

NORAD ID: 62154 Int'l Des: 2024-224 Owner: SPXS Country: US Constellation: starlink operational
LEOCIRCULAR

实时位置

正在加载3D地球...

关于 Starlink 32625

正在加载描述...

即将过境

Passes for default location (London). Set your location on the main map for personalized predictions.

高度历史

Loading altitude history...

两行轨道根数

1 62154U 24224R 26126.66851042 .00021348 00000-0 78248-3 0 9991
2 62154 42.9986 190.9650 0001442 277.5862 82.4826 15.27603898 81239
Epoch: May 6, 2026 • Age: 14 hours

当前状态

高度 483.3 km
速度 7.63 km/s
星下点 -5.90°S, 135.73°W
发射日期 Nov 30, 2024
运行时间 1.4 years
类型 internet

技术详情

分类 Payload
质量 730.00 kg
干质量 700.00 kg
总质量 730.00 kg
长度 0.30 m
直径 4.10 m
跨度 29.00 m
形状 Box + pan
制造商 SPXS
平台类型 Starlink V2M
阶段状态 In Orbit
所有者/国家 SPXS/US

Most Searched